• en Suisse
  • Liste des pays
  • À 7 jours
  • Température de l'eau
  • Carte satellitaire
  • Carte météo
  • Widgets météo
  • user-avatar
    Se connecter

    Météo par heure à Kinshasa

    Ce jour, 21 Septembre, Vendredi

    Heure Température Précipitation Vent Pression Humidité
    00:00 +22°C° 0.8 mm 0 m/s 706 mmHg 87%
    01:00 +22°C° 0.8 mm 0 m/s 706 mmHg 90%
    02:00 +22°C° 0.2 mm 0 m/s 706 mmHg 91%
    03:00 +21°C° 0.2 mm 0 m/s 706 mmHg 92%
    04:00 +23°C° 0.2 mm 1 m/s 706 mmHg 92%
    05:00 +23°C° 0.4 mm 1 m/s 706 mmHg 93%
    06:00 +24°C° 0.4 mm 1 m/s 706 mmHg 93%
    07:00 +22°C° 0.4 mm 0 m/s 707 mmHg 93%
    08:00 +23°C° 1.8 mm 0 m/s 707 mmHg 90%
    09:00 +25°C° 1.8 mm 0 m/s 707 mmHg 88%
    10:00 +27°C° 1.8 mm 0 m/s 707 mmHg 85%
    11:00 +27°C° 2.4 mm 0 m/s 707 mmHg 85%
    12:00 +27°C° 2.4 mm 0 m/s 706 mmHg 84%
    13:00 +26°C° 2.4 mm 0 m/s 706 mmHg 84%
    14:00 +26°C° 0.3 mm 0 m/s 706 mmHg 83%
    15:00 +28°C° 0.3 mm 1 m/s 705 mmHg 81%
    16:00 +28°C° 0.3 mm 1 m/s 705 mmHg 80%
    17:00 +27°C° 0 mm 1 m/s 705 mmHg 83%
    18:00 +26°C° 0 mm 1 m/s 705 mmHg 86%
    19:00 +25°C° 0 mm 1 m/s 705 mmHg 90%
    20:00 +24°C° 0.4 mm 1 m/s 705 mmHg 91%
    21:00 +24°C° 0.4 mm 1 m/s 706 mmHg 93%
    22:00 +23°C° 0.4 mm 1 m/s 706 mmHg 94%
    23:00 +23°C° 0.2 mm 1 m/s 706 mmHg 95%

    Demain, 22 Septembre, Samedi

    Heure Température Précipitation Vent Pression Humidité
    00:00 +23°C° 0.2 mm 1 m/s 706 mmHg 95%
    01:00 +22°C° 0.2 mm 1 m/s 706 mmHg 96%
    02:00 +22°C° 1.2 mm 1 m/s 706 mmHg 97%
    03:00 +22°C° 1.2 mm 1 m/s 705 mmHg 97%
    04:00 +22°C° 1.2 mm 1 m/s 705 mmHg 98%
    05:00 +22°C° 0.8 mm 1 m/s 706 mmHg 98%
    06:00 +22°C° 0.8 mm 1 m/s 706 mmHg 97%
    07:00 +23°C° 0.8 mm 1 m/s 707 mmHg 97%
    08:00 +24°C° 1.1 mm 1 m/s 708 mmHg 94%
    09:00 +26°C° 1.1 mm 1 m/s 708 mmHg 91%
    10:00 +28°C° 1.1 mm 1 m/s 709 mmHg 88%
    11:00 +28°C° 1.1 mm 1 m/s 708 mmHg 86%
    12:00 +28°C° 1.1 mm 1 m/s 707 mmHg 84%
    13:00 +28°C° 1.1 mm 1 m/s 707 mmHg 82%
    14:00 +29°C° 0.1 mm 1 m/s 706 mmHg 78%
    15:00 +29°C° 0.1 mm 1 m/s 706 mmHg 75%
    16:00 +29°C° 0.1 mm 1 m/s 705 mmHg 71%
    17:00 +28°C° 0 mm 1 m/s 705 mmHg 77%
    18:00 +26°C° 0 mm 1 m/s 706 mmHg 83%
    19:00 +23°C° 0 mm 0 m/s 706 mmHg 88%
    20:00 +24°C° 0 mm 1 m/s 706 mmHg 90%
    21:00 +24°C° 0 mm 1 m/s 706 mmHg 92%
    22:00 +23°C° 0 mm 1 m/s 707 mmHg 94%
    23:00 +23°C° 0.1 mm 1 m/s 706 mmHg 95%

    Après-demain, 23 Septembre, Dimanche

    Heure Température Précipitation Vent Pression Humidité
    00:00 +23°C° 0.1 mm 1 m/s 706 mmHg 97%
    01:00 +23°C° 0.1 mm 2 m/s 705 mmHg 98%
    02:00 +22°C° 0 mm 1 m/s 705 mmHg 98%
    03:00 +22°C° 0 mm 1 m/s 706 mmHg 98%
    04:00 +22°C° 0 mm 1 m/s 706 mmHg 98%
    05:00 +22°C° 0 mm 1 m/s 706 mmHg 97%
    06:00 +23°C° 0 mm 1 m/s 707 mmHg 95%
    07:00 +23°C° 0 mm 2 m/s 708 mmHg 93%
    08:00 +25°C° 0 mm 2 m/s 708 mmHg 85%
    09:00 +27°C° 0 mm 2 m/s 708 mmHg 77%
    10:00 +29°C° 0 mm 2 m/s 709 mmHg 68%
    11:00 +30°C° 0 mm 2 m/s 708 mmHg 64%
    12:00 +32°C° 0 mm 2 m/s 707 mmHg 59%
    13:00 +33°C° 0 mm 1 m/s 706 mmHg 54%
    14:00 +32°C° 0.2 mm 1 m/s 706 mmHg 59%
    15:00 +32°C° 0.2 mm 1 m/s 706 mmHg 63%
    16:00 +29°C° 0.2 mm 0 m/s 705 mmHg 68%
    17:00 +29°C° 1.7 mm 1 m/s 706 mmHg 76%
    18:00 +27°C° 1.7 mm 1 m/s 706 mmHg 84%
    19:00 +24°C° 1.7 mm 1 m/s 707 mmHg 92%
    20:00 +24°C° 0.3 mm 1 m/s 707 mmHg 93%
    21:00 +23°C° 0.3 mm 1 m/s 707 mmHg 95%
    22:00 +23°C° 0.3 mm 1 m/s 708 mmHg 97%
    23:00 +23°C° 0 mm 1 m/s 707 mmHg 97%

    24 Septembre, Lundi

    Heure Température Précipitation Vent Pression Humidité
    00:00 +22°C° 0 mm 1 m/s 706 mmHg 97%
    01:00 +22°C° 0 mm 1 m/s 706 mmHg 98%
    02:00 +22°C° 0 mm 1 m/s 706 mmHg 98%
    03:00 +22°C° 0 mm 1 m/s 706 mmHg 98%
    04:00 +22°C° 0 mm 1 m/s 706 mmHg 98%
    05:00 +22°C° 0.2 mm 1 m/s 707 mmHg 97%
    06:00 +22°C° 0.2 mm 1 m/s 707 mmHg 97%
    07:00 +23°C° 0.2 mm 1 m/s 708 mmHg 96%
    08:00 +24°C° 0.4 mm 1 m/s 708 mmHg 94%
    09:00 +25°C° 0.4 mm 1 m/s 708 mmHg 91%
    10:00 +26°C° 0.4 mm 1 m/s 709 mmHg 88%
    11:00 +27°C° 0.6 mm 1 m/s 708 mmHg 83%
    12:00 +28°C° 0.6 mm 2 m/s 707 mmHg 79%
    13:00 +30°C° 0.6 mm 2 m/s 707 mmHg 74%
    14:00 +29°C° 0.9 mm 1 m/s 707 mmHg 74%
    15:00 +29°C° 0.9 mm 1 m/s 706 mmHg 74%
    16:00 +27°C° 0.9 mm 0 m/s 706 mmHg 73%
    17:00 +25°C° 0 mm 0 m/s 706 mmHg 79%
    18:00 +24°C° 0 mm 0 m/s 706 mmHg 84%
    19:00 +24°C° 0 mm 1 m/s 707 mmHg 89%
    20:00 +24°C° 0 mm 1 m/s 707 mmHg 90%
    21:00 +24°C° 0 mm 1 m/s 707 mmHg 91%
    22:00 +23°C° 0 mm 1 m/s 707 mmHg 93%
    23:00 +23°C° 0 mm 1 m/s 707 mmHg 93%

    25 Septembre, Mardi

    Heure Température Précipitation Vent Pression Humidité
    00:00 +23°C° 0 mm 1 m/s 706 mmHg 94%
    01:00 +23°C° 0 mm 1 m/s 706 mmHg 94%
    02:00 +22°C° 0 mm 1 m/s 706 mmHg 95%
    03:00 +22°C° 0 mm 1 m/s 706 mmHg 95%
    04:00 +22°C° 0 mm 1 m/s 706 mmHg 95%
    05:00 +22°C° 0 mm 1 m/s 707 mmHg 94%
    06:00 +23°C° 0 mm 1 m/s 707 mmHg 92%
    07:00 +23°C° 0 mm 1 m/s 708 mmHg 91%
    08:00 +25°C° 0.3 mm 1 m/s 708 mmHg 84%
    09:00 +27°C° 0.3 mm 1 m/s 708 mmHg 78%
    10:00 +29°C° 0.3 mm 1 m/s 709 mmHg 71%
    11:00 +30°C° 0.7 mm 1 m/s 708 mmHg 68%
    12:00 +30°C° 0.7 mm 1 m/s 707 mmHg 66%
    13:00 +31°C° 0.7 mm 1 m/s 706 mmHg 63%
    14:00 +31°C° 0.4 mm 1 m/s 706 mmHg 67%
    15:00 +30°C° 0.4 mm 1 m/s 705 mmHg 71%
    16:00 +28°C° 0.4 mm 0 m/s 705 mmHg 75%
    17:00 +26°C° 0.4 mm 0 m/s 705 mmHg 80%
    18:00 +26°C° 0.4 mm 1 m/s 706 mmHg 85%
    19:00 +24°C° 0.4 mm 1 m/s 706 mmHg 90%
    20:00 +24°C° 0.3 mm 1 m/s 706 mmHg 92%
    21:00 +21°C° 0.3 mm 0 m/s 707 mmHg 93%
    22:00 +21°C° 0.3 mm 0 m/s 707 mmHg 95%
    23:00 +21°C° 0.2 mm 0 m/s 707 mmHg 95%

    26 Septembre, Mercredi

    Heure Température Précipitation Vent Pression Humidité
    00:00 +21°C° 0.2 mm 0 m/s 706 mmHg 95%
    01:00 +21°C° 0.2 mm 0 m/s 706 mmHg 96%
    02:00 +20°C° 0 mm 0 m/s 706 mmHg 96%
    03:00 +22°C° 0 mm 1 m/s 706 mmHg 97%
    04:00 +22°C° 0 mm 1 m/s 706 mmHg 97%
    05:00 +22°C° 0 mm 1 m/s 706 mmHg 97%
    06:00 +22°C° 0 mm 1 m/s 707 mmHg 96%
    07:00 +23°C° 0 mm 1 m/s 708 mmHg 96%
    08:00 +24°C° 0.7 mm 1 m/s 708 mmHg 93%
    09:00 +26°C° 0.7 mm 2 m/s 708 mmHg 90%
    10:00 +27°C° 0.7 mm 2 m/s 708 mmHg 87%
    11:00 +28°C° 0.7 mm 2 m/s 707 mmHg 85%
    12:00 +28°C° 0.7 mm 2 m/s 707 mmHg 83%
    13:00 +28°C° 0.7 mm 2 m/s 706 mmHg 81%
    14:00 +29°C° 0.6 mm 2 m/s 706 mmHg 80%
    15:00 +29°C° 0.6 mm 1 m/s 705 mmHg 79%
    16:00 +29°C° 0.6 mm 1 m/s 705 mmHg 78%
    17:00 +27°C° 0.5 mm 1 m/s 705 mmHg 83%
    18:00 +26°C° 0.5 mm 1 m/s 706 mmHg 89%
    19:00 +24°C° 0.5 mm 1 m/s 706 mmHg 94%
    20:00 +24°C° 0.3 mm 1 m/s 706 mmHg 95%
    21:00 +23°C° 0.3 mm 1 m/s 706 mmHg 96%
    22:00 +21°C° 0.3 mm 0 m/s 707 mmHg 96%
    23:00 +23°C° 0.2 mm 1 m/s 706 mmHg 97%
    Voir plus